Location: Bastelaar
(51.0950°N, 3.8602°E)
Time: 07:17:02
(UTC+00:00)

Cosmos 1190 Rocket - Pass Details

Date: 18 November 2025
Orbit: 752 x 775 km, 74.1° (Epoch: 12 December)

Event Time Altitude Azimuth Distance (km) Brightness Sun altitude
Rises 17:54:33 0° 197° (SSW) 3,241 7.6 -18.8°
Reaches altitude 10° 17:56:55 10° 196° (SSW) 2,319 6.8 -19.2°
Maximum altitude 18:02:11 77° 112° (ESE) 801 3.9 -20.0°
Enters shadow 18:05:27 24° 29° (NNE) 1,573 5.3 -20.5°
